Weather History for Manchester, NH

Change the Weather History Date:

Monday, June 3, 2013

  Actual Average Record
Temperature  
Mean Temperature 72 °F -  
Max Temperature 81 °F 73 °F 88 °F (1970)
Min Temperature 61 °F 48 °F 35 °F (1986)
Cooling Degree Days 6    
Growing Degree Days 22 (Base 50)    
Moisture  
Dew Point 61 °F    
Average Humidity 76    
Maximum Humidity 94    
Minimum Humidity 40    
Precipitation  
Precipitation 0.15 in - - ()
Sea Level Pressure  
Sea Level Pressure 29.81 in    
Wind  
Wind Speed 5 mph (SSW)    
Max Wind Speed 12 mph    
Max Gust Speed 21 mph    
Visibility 8 miles    
Events Rain    
Averages and records for this station are not official NWS values.
T = Trace of Precipitation, MM = Missing Value Source: NWS Daily Summary

Daily Weather History Graph

Daily Weather History Graph

Search for Another Location

Airport:

Trip Planner

Search our weather history database for the weather conditions in past years. The results will help you decide how hot, cold, wet, or windy it might be!

Date:

Astronomy

Jun. 03, 2013 Rise Set
Actual Time 5:08 AM EDT 8:19 PM EDT
Civil Twilight 4:34 AM EDT 8:54 PM EDT
Nautical Twilight 3:49 AM EDT 9:38 PM EDT
Astronomical Twilight 2:55 AM EDT 10:32 PM EDT
Moon 2:11 AM EDT (6/3) 3:41 PM EDT (6/3)
Length of Visible Light 16h 20m
Length of Day
15h 11m
Waning Crescent, 22% of the Moon is Illuminated
Jun 3
Waning Crescent
Jun 8
New
Jun 16
First Quarter
Jun 23
Full
Jun 30
Last Quarter

Hourly Weather History & Observations

Time (EDT) Temp. Heat Index Dew Point Humidity Pressure Visibility Wind Dir Wind Speed Gust Speed Precip Events Conditions
12:36 AM 69.8 °F - 68.0 °F 94% 29.79 in 10.0 mi WNW 3.5 mph - N/A   Mostly Cloudy
12:53 AM 70.0 °F - 68.0 °F 93% 29.83 in 10.0 mi NW 3.5 mph - N/A   Mostly Cloudy
1:53 AM 70.0 °F - 66.9 °F 90% 29.81 in 10.0 mi Calm Calm - N/A   Partly Cloudy
2:53 AM 70.0 °F - 66.0 °F 87% 29.80 in 10.0 mi SSW 4.6 mph - N/A   Clear
3:53 AM 68.0 °F - 66.0 °F 93% 29.79 in 10.0 mi SSW 4.6 mph - N/A   Mostly Cloudy
4:35 AM 68.0 °F - 66.2 °F 94% 29.77 in 8.0 mi Calm Calm - N/A   Mostly Cloudy
4:53 AM 68.0 °F - 66.0 °F 93% 29.79 in 8.0 mi Calm Calm - N/A   Overcast
5:53 AM 68.0 °F - 66.0 °F 93% 29.82 in 4.0 mi South 3.5 mph - N/A   Overcast
5:58 AM 68.0 °F - 66.2 °F 94% 29.80 in 6.0 mi South 3.5 mph - N/A   Overcast
6:53 AM 68.0 °F - 66.0 °F 93% 29.85 in 3.0 mi South 5.8 mph - 0.06 in Rain Light Rain
7:53 AM 68.0 °F - 66.0 °F 93% 29.86 in 6.0 mi South 6.9 mph - 0.02 in Rain Light Rain
8:53 AM 68.0 °F - 66.0 °F 93% 29.85 in 5.0 mi South 5.8 mph - 0.05 in Rain Light Rain
9:00 AM 68.0 °F - 66.2 °F 94% 29.82 in 6.0 mi South 6.9 mph - 0.00 in Rain Light Rain
9:16 AM 68.0 °F - 64.4 °F 88% 29.82 in 6.0 mi SSW 6.9 mph - 0.01 in Rain Light Rain
9:27 AM 68.0 °F - 64.4 °F 88% 29.82 in 6.0 mi South 6.9 mph - 0.01 in Rain Light Rain
9:53 AM 66.9 °F - 64.9 °F 93% 29.85 in 6.0 mi South 8.1 mph - 0.01 in Rain Light Rain
10:53 AM 68.0 °F - 64.9 °F 90% 29.85 in 6.0 mi South 8.1 mph - 0.01 in Rain Light Rain
11:22 AM 68.0 °F - 64.4 °F 88% 29.81 in 10.0 mi South 8.1 mph - 0.00 in   Mostly Cloudy
11:44 AM 69.8 °F - 64.4 °F 83% 29.81 in 10.0 mi South 10.4 mph - 0.00 in   Mostly Cloudy
11:53 AM 70.0 °F - 64.0 °F 81% 29.84 in 10.0 mi South 9.2 mph - 0.00 in   Mostly Cloudy
12:53 PM 72.0 °F - 64.0 °F 76% 29.82 in 10.0 mi South 8.1 mph - N/A   Mostly Cloudy
1:53 PM 75.0 °F - 63.0 °F 66% 29.79 in 10.0 mi South 10.4 mph - N/A   Mostly Cloudy
2:53 PM 78.1 °F - 60.1 °F 54% 29.78 in 10.0 mi SW 10.4 mph - N/A   Scattered Clouds
3:53 PM 81.0 °F 80.8 °F 55.9 °F 42% 29.78 in 10.0 mi SW 11.5 mph 20.7 mph N/A   Scattered Clouds
4:53 PM 79.0 °F - 54.0 °F 42% 29.76 in 10.0 mi SW 10.4 mph - N/A   Scattered Clouds
5:53 PM 78.1 °F - 52.0 °F 40% 29.77 in 10.0 mi WSW 8.1 mph 18.4 mph N/A   Partly Cloudy
6:53 PM 75.9 °F - 50.0 °F 40% 29.78 in 10.0 mi West 11.5 mph 19.6 mph N/A   Partly Cloudy
7:53 PM 73.0 °F - 48.9 °F 42% 29.80 in 10.0 mi West 9.2 mph - N/A   Partly Cloudy
8:53 PM 68.0 °F - 44.1 °F 42% 29.83 in 10.0 mi West 5.8 mph - N/A   Clear
9:53 PM 64.9 °F - 46.0 °F 50% 29.83 in 10.0 mi SW 4.6 mph - N/A   Clear
10:53 PM 62.1 °F - 45.0 °F 53% 29.85 in 10.0 mi West 3.5 mph - N/A   Clear
11:53 PM 61.0 °F - 45.0 °F 56% 29.86 in 10.0 mi West 8.1 mph - N/A   Clear